TimeEDT,TemperatureF,Dew PointF,Humidity,Sea Level PressureIn,VisibilityMPH,Wind Direction,Wind SpeedMPH,Gust SpeedMPH,PrecipitationIn,Events,Conditions,WindDirDegrees,DateUTC
12:12 AM,48.2,48.2,100,29.91,0.8,Calm,Calm,-,N/A,,Mist,0,2012-10-15 04:12:00
12:20 AM,48.2,46.4,93,29.91,0.2,Calm,Calm,-,N/A,Fog,Fog,0,2012-10-15 04:20:00
12:31 AM,50.0,48.2,94,29.90,0.5,Calm,Calm,-,N/A,Fog,Fog,0,2012-10-15 04:31:00
12:51 AM,48.9,48.0,97,29.89,0.5,Calm,Calm,-,N/A,Fog,Fog,0,2012-10-15 04:51:00
1:51 AM,46.9,46.0,97,29.87,0.2,Calm,Calm,-,N/A,Fog,Fog,0,2012-10-15 05:51:00
1:58 AM,46.4,46.4,100,29.87,0.5,Calm,Calm,-,N/A,Fog,Fog,0,2012-10-15 05:58:00
2:11 AM,46.4,46.4,100,29.87,1.2,Calm,Calm,-,N/A,,Scattered Clouds,0,2012-10-15 06:11:00
2:21 AM,48.2,48.2,100,29.86,3.0,South,3.5,-,N/A,,Partly Cloudy,170,2012-10-15 06:21:00
2:51 AM,51.1,50.0,96,29.84,5.0,South,3.5,-,N/A,,Clear,180,2012-10-15 06:51:00
3:51 AM,51.1,50.0,96,29.83,1.8,South,3.5,-,0.01,,Scattered Clouds,180,2012-10-15 07:51:00
3:59 AM,51.8,50.0,94,29.83,2.0,Calm,Calm,-,N/A,,Mostly Cloudy,0,2012-10-15 07:59:00
4:11 AM,51.8,48.2,88,29.83,1.0,Calm,Calm,-,N/A,,Overcast,0,2012-10-15 08:11:00
4:19 AM,51.8,50.0,94,29.83,1.0,Calm,Calm,-,N/A,,Overcast,0,2012-10-15 08:19:00
4:27 AM,51.8,50.0,94,29.82,0.8,Calm,Calm,-,N/A,,Mist,0,2012-10-15 08:27:00
4:51 AM,50.0,48.9,96,29.81,0.5,South,3.5,-,N/A,Fog,Fog,180,2012-10-15 08:51:00
5:17 AM,51.8,50.0,94,29.81,0.5,Calm,Calm,-,N/A,Fog,Fog,0,2012-10-15 09:17:00
5:24 AM,51.8,50.0,94,29.81,0.5,Calm,Calm,-,N/A,Fog,Fog,0,2012-10-15 09:24:00
5:33 AM,51.8,50.0,94,29.81,0.5,South,3.5,-,N/A,Fog,Fog,170,2012-10-15 09:33:00
5:51 AM,51.1,50.0,96,29.80,0.2,South,3.5,-,N/A,Fog,Fog,170,2012-10-15 09:51:00
6:13 AM,51.8,50.0,94,29.80,0.5,Calm,Calm,-,N/A,Fog,Fog,0,2012-10-15 10:13:00
6:41 AM,51.8,51.8,100,29.78,1.0,Calm,Calm,-,N/A,,Mist,0,2012-10-15 10:41:00
6:47 AM,51.8,51.8,100,29.78,2.0,Calm,Calm,-,N/A,,Overcast,0,2012-10-15 10:47:00
6:51 AM,52.0,51.1,97,29.78,3.0,Calm,Calm,-,N/A,,Overcast,0,2012-10-15 10:51:00
6:54 AM,51.8,51.8,100,29.78,2.5,South,3.5,-,N/A,,Overcast,170,2012-10-15 10:54:00
7:08 AM,53.6,51.8,94,29.77,6.0,South,4.6,-,N/A,,Scattered Clouds,170,2012-10-15 11:08:00
7:51 AM,54.0,53.1,97,29.75,7.0,South,3.5,-,N/A,,Scattered Clouds,170,2012-10-15 11:51:00
8:03 AM,53.6,53.6,100,29.76,5.0,Calm,Calm,-,N/A,,Mostly Cloudy,0,2012-10-15 12:03:00
8:11 AM,53.6,53.6,100,29.76,5.0,Calm,Calm,-,N/A,,Mostly Cloudy,0,2012-10-15 12:11:00
8:51 AM,55.9,55.0,97,29.76,7.0,Calm,Calm,-,N/A,,Overcast,0,2012-10-15 12:51:00
9:36 AM,57.2,57.2,100,29.76,9.0,Calm,Calm,-,N/A,,Mostly Cloudy,0,2012-10-15 13:36:00
9:51 AM,57.9,57.0,97,29.75,9.0,Calm,Calm,-,N/A,,Partly Cloudy,0,2012-10-15 13:51:00
10:51 AM,60.1,57.9,93,29.73,8.0,SSE,4.6,-,N/A,,Clear,160,2012-10-15 14:51:00
11:51 AM,63.0,60.1,90,29.72,10.0,South,5.8,-,N/A,,Overcast,170,2012-10-15 15:51:00
12:51 PM,66.9,61.0,81,29.69,10.0,South,5.8,-,N/A,,Partly Cloudy,170,2012-10-15 16:51:00
1:51 PM,70.0,61.0,73,29.66,10.0,South,6.9,-,N/A,,Scattered Clouds,180,2012-10-15 17:51:00
2:51 PM,71.1,61.0,70,29.64,10.0,Calm,Calm,-,N/A,,Partly Cloudy,0,2012-10-15 18:51:00
3:51 PM,72.0,60.1,66,29.62,10.0,Calm,Calm,-,N/A,,Scattered Clouds,0,2012-10-15 19:51:00
4:51 PM,72.0,60.1,66,29.62,10.0,Calm,Calm,-,N/A,,Partly Cloudy,0,2012-10-15 20:51:00
5:51 PM,70.0,59.0,68,29.61,10.0,South,5.8,-,N/A,,Mostly Cloudy,170,2012-10-15 21:51:00
6:51 PM,68.0,60.1,76,29.61,10.0,South,4.6,-,N/A,,Overcast,180,2012-10-15 22:51:00
7:51 PM,64.9,60.1,84,29.60,7.0,SSE,5.8,-,0.01,Rain,Light Rain,160,2012-10-15 23:51:00
8:51 PM,64.0,60.1,87,29.58,10.0,South,8.1,-,0.00,,Overcast,170,2012-10-16 00:51:00
9:51 PM,62.1,60.1,93,29.60,10.0,Calm,Calm,-,0.03,,Overcast,0,2012-10-16 01:51:00
10:51 PM,61.0,59.0,93,29.59,10.0,Calm,Calm,-,0.00,,Overcast,0,2012-10-16 02:51:00
11:58 PM,60.8,59.0,94,29.59,10.0,Calm,Calm,-,N/A,,Overcast,0,2012-10-16 03:58:00